DW6044 Weather Reports


time (UTC)temp
C
wind
direction
speed
KPH
gust
KPH
rain 1hr
cm
rain 24hr
cm
rain mn
cm
humidity
%
barometer
mb
20260509135404 13 126 0.0 0.0 0.00 0.00 0.00 72 1012.5
20260509135003 13 0 0.0 0.0 0.00 0.00 0.00 71 1012.2
20260509134903 13 160 0.0 0.0 0.00 0.00 0.00 72 1012.5
20260509134603 13 0 0.0 0.0 0.00 0.00 0.00 73 1012.1
20260509134538 13 160 0.0 0.0 0.00 0.00 0.00 72 1012.5
20260509134203 13 0 0.0 0.0 0.00 0.00 0.00 70 1012.1
20260509134003 13 0 0.0 0.0 0.00 0.00 0.00 68 1012.0
20260509133903 13 160 0.0 3.2 0.00 0.00 0.00 68 1012.4
20260509133804 13 0 0.0 0.0 0.00 0.00 0.00 69 1012.1
20260509133203 13 0 0.0 0.0 0.00 0.00 0.00 69 1012.1
20260509133042 13 236 0.0 0.0 0.00 0.00 0.00 69 1012.5
20260509133004 13 0 0.0 0.0 0.00 0.00 0.00 70 1012.2
20260509132904 13 236 0.0 0.0 0.00 0.00 0.00 70 1012.4
20260509132603 13 0 0.0 0.0 0.00 0.00 0.00 70 1012.2
20260509132403 13 0 0.0 0.0 0.00 0.00 0.00 70 1012.2
20260509132204 13 0 0.0 0.0 0.00 0.00 0.00 71 1012.1
20260509132004 13 0 0.0 0.0 0.00 0.00 0.00 71 1012.1
20260509131903 13 229 1.6 4.8 0.00 0.00 0.00 72 1012.4
20260509131803 13 0 0.0 6.4 0.00 0.00 0.00 72 1012.1
20260509131613 13 360 0.0 0.0 0.00 0.00 0.00 70 1012.5
20260509131603 13 0 0.0 0.0 0.00 0.00 0.00 72 1012.2
20260509131510 13 360 0.0 0.0 0.00 0.00 0.00 70 1012.5
20260509131404 13 0 0.0 0.0 0.00 0.00 0.00 74 1012.1
20260509130902 13 44 0.0 1.6 0.00 0.00 0.00 73 1012.6
20260509130803 13 0 0.0 1.6 0.00 0.00 0.00 73 1012.3
20260509130403 13 225 0.0 3.2 0.00 0.00 0.00 71 1012.6
20260509130205 13 0 0.0 3.2 0.00 0.00 0.00 75 1012.2
20260509130008 13 225 0.0 0.0 0.00 0.00 0.00 75 1012.6
20260509130003 13 0 0.0 0.0 0.00 0.00 0.00 75 1012.1
20260509125903 13 225 0.0 0.0 0.00 0.00 0.00 74 1012.5
20260509125203 13 0 0.0 0.0 0.00 0.00 0.00 74 1012.1
20260509125004 13 0 0.0 0.0 0.00 0.00 0.00 76 1012.1
20260509124805 13 0 0.0 0.0 0.00 0.00 0.00 77 1012.1
20260509124603 13 0 0.0 0.0 0.00 0.00 0.00 77 1012.1
20260509124552 12 225 0.0 0.0 0.00 0.00 0.00 77 1012.5
20260509124510 12 225 0.0 0.0 0.00 0.00 0.00 77 1012.5
20260509124403 12 225 0.0 0.0 0.00 0.00 0.00 75 1012.5
20260509124203 12 0 0.0 0.0 0.00 0.00 0.00 75 1012.1
20260509124004 12 0 0.0 0.0 0.00 0.00 0.00 75 1012.2
20260509123804 12 0 0.0 0.0 0.00 0.00 0.00 75 1012.1
20260509123603 12 0 0.0 0.0 0.00 0.00 0.00 76 1012.0
20260509123403 12 221 0.0 0.0 0.00 0.00 0.00 78 1012.4
20260509123204 12 0 0.0 0.0 0.00 0.00 0.00 77 1011.9
20260509123103 12 221 0.0 0.0 0.00 0.00 0.00 76 1012.3
20260509123020 12 221 0.0 0.0 0.00 0.00 0.00 74 1012.3
20260509123004 12 0 0.0 0.0 0.00 0.00 0.00 74 1011.9
20260509122903 12 221 0.0 0.0 0.00 0.00 0.00 74 1012.3
20260509122803 12 0 0.0 0.0 0.00 0.00 0.00 74 1011.9
20260509122603 12 0 0.0 0.0 0.00 0.00 0.00 75 1012.0
20260509122403 12 0 0.0 0.0 0.00 0.00 0.00 75 1012.0
20260509122204 12 0 0.0 0.0 0.00 0.00 0.00 76 1012.0
20260509122003 12 0 0.0 1.6 0.00 0.00 0.00 79 1012.0
20260509121903 12 88 0.0 1.6 0.00 0.00 0.00 79 1012.4
20260509121804 12 0 0.0 1.6 0.00 0.00 0.00 79 1012.0
20260509121603 12 0 0.0 0.0 0.00 0.00 0.00 78 1012.0
20260509121521 12 15 0.0 0.0 0.00 0.00 0.00 77 1012.4
20260509121403 12 70 0.0 0.0 0.00 0.00 0.00 78 1012.4
20260509121203 12 0 0.0 0.0 0.00 0.00 0.00 80 1012.0
20260509121004 12 0 0.0 0.0 0.00 0.00 0.00 79 1012.0
20260509120905 12 62 0.0 0.0 0.00 0.00 0.00 79 1012.4
20260509120803 12 0 0.0 0.0 0.00 0.00 0.00 80 1012.0
20260509120604 12 0 0.0 0.0 0.00 0.00 0.00 79 1012.0
20260509120403 12 0 0.0 0.0 0.00 0.00 0.00 80 1012.0
20260509120203 12 0 0.0 1.6 0.00 0.00 0.00 80 1012.0
20260509120026 11 62 0.0 0.0 0.00 0.00 0.00 78 1012.4
20260509115603 11 0 0.0 0.0 0.00 0.00 0.00 80 1012.1
20260509115404 11 0 0.0 0.0 0.00 0.00 0.00 79 1012.1
20260509115203 11 0 0.0 0.0 0.00 0.00 0.00 81 1012.1
20260509115003 11 0 0.0 0.0 0.00 0.00 0.00 82 1012.1
20260509114903 11 103 0.0 1.6 0.00 0.00 0.00 82 1012.5
20260509114803 11 0 0.0 0.0 0.00 0.00 0.00 82 1012.0
20260509114531 11 102 0.0 0.0 0.00 0.00 0.00 80 1012.5
20260509114403 11 196 0.0 9.7 0.00 0.00 0.00 82 1012.5
20260509114204 11 0 0.0 0.0 0.00 0.00 0.00 81 1012.0
20260509114003 11 0 0.0 0.0 0.00 0.00 0.00 82 1012.0
20260509113903 11 208 0.0 0.0 0.00 0.00 0.00 81 1012.4
20260509113803 11 0 0.0 0.0 0.00 0.00 0.00 81 1012.0
20260509113603 11 0 0.0 0.0 0.00 0.00 0.00 81 1011.9
20260509113404 11 0 0.0 0.0 0.00 0.00 0.00 82 1011.9
20260509113203 11 0 0.0 0.0 0.00 0.00 0.00 82 1011.9
20260509113036 10 208 0.0 0.0 0.00 0.00 0.00 82 1012.3
20260509113003 11 0 0.0 0.0 0.00 0.00 0.00 82 1011.9
20260509112903 11 208 0.0 0.0 0.00 0.00 0.00 81 1012.3
20260509112804 11 0 0.0 0.0 0.00 0.00 0.00 82 1011.9
20260509112603 11 0 0.0 0.0 0.00 0.00 0.00 82 1011.8
20260509112404 11 0 0.0 0.0 0.00 0.00 0.00 82 1011.8
20260509112204 11 0 0.0 0.0 0.00 0.00 0.00 82 1011.8
20260509112003 11 0 0.0 0.0 0.00 0.00 0.00 82 1011.8
20260509111904 10 205 0.0 0.0 0.00 0.00 0.00 81 1012.2
20260509111804 10 0 0.0 0.0 0.00 0.00 0.00 81 1011.8
20260509111604 10 0 0.0 0.0 0.00 0.00 0.00 82 1011.8
20260509111544 10 205 0.0 0.0 0.00 0.00 0.00 82 1012.2
20260509111507 10 205 0.0 0.0 0.00 0.00 0.00 82 1012.2
20260509111404 10 0 0.0 0.0 0.00 0.00 0.00 82 1011.7
20260509111205 10 0 0.0 0.0 0.00 0.00 0.00 82 1011.7
20260509111003 10 0 0.0 0.0 0.00 0.00 0.00 82 1011.7
20260509110903 10 24 0.0 0.0 0.00 0.00 0.00 82 1012.1
20260509110804 10 0 0.0 0.0 0.00 0.00 0.00 82 1011.7
20260509110603 10 0 0.0 0.0 0.00 0.00 0.00 82 1011.7
20260509110404 10 0 0.0 0.0 0.00 0.00 0.00 82 1011.7
20260509110203 10 0 0.0 0.0 0.00 0.00 0.00 81 1011.6
20260509110104 10 24 0.0 0.0 0.00 0.00 0.00 82 1012.0
20260509110023 10 24 0.0 0.0 0.00 0.00 0.00 82 1012.0
20260509110004 10 0 0.0 0.0 0.00 0.00 0.00 81 1011.6
20260509105903 10 24 0.0 0.0 0.00 0.00 0.00 82 1012.0
20260509105803 10 0 0.0 0.0 0.00 0.00 0.00 82 1011.6
20260509105604 10 0 0.0 0.0 0.00 0.00 0.00 82 1011.6
20260509105404 10 0 0.0 0.0 0.00 0.00 0.00 82 1011.6
20260509105204 10 0 0.0 0.0 0.00 0.00 0.00 82 1011.5
20260509105004 10 0 0.0 0.0 0.00 0.00 0.00 81 1011.6
20260509104904 10 24 0.0 0.0 0.00 0.00 0.00 81 1011.9
20260509104605 10 0 0.0 0.0 0.00 0.00 0.00 81 1011.6
20260509104539 10 24 0.0 0.0 0.00 0.00 0.00 81 1011.9
20260509104403 10 24 0.0 0.0 0.00 0.00 0.00 81 1011.9
20260509104205 10 0 0.0 0.0 0.00 0.00 0.00 80 1011.5
20260509104003 10 0 0.0 0.0 0.00 0.00 0.00 80 1011.6
20260509103903 10 24 0.0 0.0 0.00 0.00 0.00 80 1012.0
20260509103805 10 0 0.0 0.0 0.00 0.00 0.00 80 1011.6
20260509103603 10 0 0.0 0.0 0.00 0.00 0.00 80 1011.6
20260509103204 10 0 0.0 0.0 0.00 0.00 0.00 80 1011.5
20260509103036 10 47 0.0 0.0 0.00 0.00 0.00 80 1012.0
20260509103004 10 0 0.0 0.0 0.00 0.00 0.00 80 1011.6
20260509102904 10 338 0.0 0.0 0.00 0.00 0.00 80 1012.0
20260509102804 10 0 0.0 0.0 0.00 0.00 0.00 80 1011.6
20260509102603 10 0 0.0 0.0 0.00 0.00 0.00 79 1011.6
20260509102004 10 0 0.0 0.0 0.00 0.00 0.00 79 1011.7
20260509101904 10 338 0.0 0.0 0.00 0.00 0.00 79 1012.0
20260509101803 10 0 0.0 0.0 0.00 0.00 0.00 79 1011.6
20260509101605 10 0 0.0 0.0 0.00 0.00 0.00 80 1011.6
20260509101539 10 338 0.0 0.0 0.00 0.00 0.00 79 1012.0
20260509101502 10 338 0.0 0.0 0.00 0.00 0.00 79 1012.0
20260509101403 10 0 0.0 0.0 0.00 0.00 0.00 79 1011.6
20260509101203 10 0 0.0 0.0 0.00 0.00 0.00 79 1011.5
20260509101004 10 0 0.0 0.0 0.00 0.00 0.00 79 1011.4
20260509100903 10 338 0.0 0.0 0.00 0.00 0.00 79 1011.8
20260509100803 10 0 0.0 0.0 0.00 0.00 0.00 79 1011.5
20260509100605 11 0 0.0 0.0 0.00 0.00 0.00 79 1011.5
20260509100404 11 0 0.0 0.0 0.00 0.00 0.00 79 1011.5
20260509100204 11 0 0.0 0.0 0.00 0.00 0.00 79 1011.3
20260509100042 10 338 0.0 0.0 0.00 0.00 0.00 79 1011.8
20260509100006 10 338 0.0 0.0 0.00 0.00 0.00 79 1011.8
20260509095403 11 338 0.0 0.0 0.00 0.00 0.00 80 1011.7
20260509095003 11 0 0.0 0.0 0.00 0.00 0.00 76 1011.2
20260509094903 11 338 0.0 0.0 0.00 0.00 0.00 74 1011.7
20260509094804 11 0 0.0 0.0 0.00 0.00 0.00 74 1011.3
20260509094603 11 0 0.0 0.0 0.00 0.00 0.00 74 1011.3
20260509094549 10 338 0.0 0.0 0.00 0.00 0.00 73 1011.6
20260509094510 10 338 0.0 0.0 0.00 0.00 0.00 73 1011.7
20260509094404 11 338 0.0 0.0 0.00 0.00 0.00 73 1011.7
20260509094205 11 0 0.0 0.0 0.00 0.00 0.00 74 1011.3
20260509093903 11 338 0.0 0.0 0.00 0.00 0.00 75 1011.7
20260509093804 11 0 0.0 0.0 0.00 0.00 0.00 75 1011.2
20260509093404 11 0 0.0 0.0 0.00 0.00 0.00 75 1011.2
20260509093203 11 0 0.0 0.0 0.00 0.00 0.00 75 1011.3
20260509093053 10 338 0.0 0.0 0.00 0.00 0.00 74 1011.7
20260509093024 10 338 0.0 0.0 0.00 0.00 0.00 74 1011.8
20260509093003 11 0 0.0 0.0 0.00 0.00 0.00 74 1011.4
20260509092904 11 338 0.0 0.0 0.00 0.00 0.00 74 1011.9
20260509092804 11 0 0.0 0.0 0.00 0.00 0.00 74 1011.4
20260509092603 11 0 0.0 0.0 0.00 0.00 0.00 74 1011.4
20260509092203 11 0 0.0 0.0 0.00 0.00 0.00 75 1011.4
20260509092004 11 0 0.0 0.0 0.00 0.00 0.00 76 1011.4
20260509091904 11 338 0.0 0.0 0.00 0.00 0.00 76 1011.9
20260509091803 11 0 0.0 0.0 0.00 0.00 0.00 76 1011.5
20260509091604 11 0 0.0 0.0 0.00 0.00 0.00 77 1011.4
20260509091555 10 338 0.0 0.0 0.00 0.00 0.00 78 1011.9
20260509091518 10 338 0.0 0.0 0.00 0.00 0.00 78 1011.9
20260509091403 10 338 0.0 0.0 0.00 0.00 0.00 78 1011.9
20260509091004 11 0 0.0 0.0 0.00 0.00 0.00 78 1011.5
20260509090903 11 338 0.0 0.0 0.00 0.00 0.00 78 1011.9
20260509090803 11 0 0.0 0.0 0.00 0.00 0.00 78 1011.4
20260509090604 11 0 0.0 0.0 0.00 0.00 0.00 79 1011.4
20260509090403 11 0 0.0 0.0 0.00 0.00 0.00 79 1011.5
20260509090203 11 0 0.0 0.0 0.00 0.00 0.00 79 1011.5
20260509090029 10 338 0.0 0.0 0.00 0.00 0.00 79 1011.9
20260509090004 11 0 0.0 0.0 0.00 0.00 0.00 79 1011.4
20260509085903 11 338 0.0 0.0 0.00 0.00 0.00 78 1011.9
20260509085805 11 0 0.0 0.0 0.00 0.00 0.00 78 1011.5
20260509085603 11 0 0.0 0.0 0.00 0.00 0.00 78 1011.5
20260509085204 11 0 0.0 0.0 0.00 0.00 0.00 78 1011.5
20260509085004 11 0 0.0 0.0 0.00 0.00 0.00 78 1011.6
20260509084903 11 338 0.0 0.0 0.00 0.00 0.00 77 1012.1
20260509084804 11 0 0.0 0.0 0.00 0.00 0.00 77 1011.6
20260509084603 11 0 0.0 0.0 0.00 0.00 0.00 75 1011.7
20260509084539 10 338 0.0 0.0 0.00 0.00 0.00 75 1012.1
20260509084004 11 0 0.0 0.0 0.00 0.00 0.00 76 1011.7
20260509083905 11 338 0.0 0.0 0.00 0.00 0.00 75 1012.1
20260509083803 11 0 0.0 0.0 0.00 0.00 0.00 75 1011.7
20260509083604 11 0 0.0 0.0 0.00 0.00 0.00 74 1011.7
20260509083404 11 0 0.0 0.0 0.00 0.00 0.00 73 1011.7
20260509083204 11 0 0.0 0.0 0.00 0.00 0.00 73 1011.8
20260509083046 10 338 0.0 0.0 0.00 0.00 0.00 73 1012.3
20260509083005 10 338 0.0 0.0 0.00 0.00 0.00 73 1012.3
20260509082903 11 338 0.0 0.0 0.00 0.00 0.00 73 1012.3
20260509082804 11 0 0.0 0.0 0.00 0.00 0.00 74 1011.8
20260509082603 11 0 0.0 0.0 0.00 0.00 0.00 74 1011.8
20260509082404 11 0 0.0 0.0 0.00 0.00 0.00 75 1011.8
20260509082204 11 0 0.0 0.0 0.00 0.00 0.00 75 1011.8
20260509082004 11 0 0.0 0.0 0.00 0.00 0.00 75 1011.8
20260509081903 11 338 0.0 0.0 0.00 0.00 0.00 76 1012.2
20260509081603 11 0 0.0 0.0 0.00 0.00 0.00 75 1011.8
20260509081517 10 338 0.0 0.0 0.00 0.00 0.00 75 1012.2
20260509081404 11 0 0.0 0.0 0.00 0.00 0.00 75 1011.8
20260509081204 11 0 0.0 0.0 0.00 0.00 0.00 74 1011.8
20260509081005 11 0 0.0 0.0 0.00 0.00 0.00 74 1011.8
20260509080904 11 338 0.0 0.0 0.00 0.00 0.00 74 1012.3
20260509080804 11 0 0.0 0.0 0.00 0.00 0.00 74 1011.9
20260509080604 11 0 0.0 0.0 0.00 0.00 0.00 74 1011.9
20260509080403 11 0 0.0 0.0 0.00 0.00 0.00 75 1011.9
20260509080204 11 0 0.0 0.0 0.00 0.00 0.00 74 1011.9
20260509080057 10 338 0.0 0.0 0.00 0.00 0.00 75 1012.4
20260509080019 10 338 0.0 0.0 0.00 0.00 0.00 75 1012.4
20260509080003 11 0 0.0 0.0 0.00 0.00 0.00 75 1011.9
20260509075903 11 338 0.0 0.0 0.00 0.00 0.00 75 1012.4
20260509075804 11 0 0.0 0.0 0.00 0.00 0.00 75 1011.9
20260509075404 11 0 0.0 0.0 0.00 0.00 0.00 75 1011.9
20260509075203 11 0 0.0 0.0 0.00 0.00 0.00 75 1011.9
20260509075004 11 0 0.0 0.0 0.00 0.00 0.00 75 1011.9
20260509074903 11 338 0.0 0.0 0.00 0.00 0.00 75 1012.4
20260509074604 11 0 0.0 0.0 0.00 0.00 0.00 75 1011.9
20260509074526 10 338 0.0 0.0 0.00 0.00 0.00 75 1012.4
20260509074403 11 338 0.0 0.0 0.00 0.00 0.00 75 1012.4
20260509074205 11 0 0.0 0.0 0.00 0.00 0.00 75 1012.0
20260509074004 11 0 0.0 0.0 0.00 0.00 0.00 75 1012.0
20260509073903 11 338 0.0 0.0 0.00 0.00 0.00 75 1012.5
20260509073803 11 0 0.0 0.0 0.00 0.00 0.00 75 1012.0
20260509073605 11 0 0.0 0.0 0.00 0.00 0.00 75 1012.0
20260509073403 11 0 0.0 0.0 0.00 0.00 0.00 75 1012.0
20260509073204 11 0 0.0 0.0 0.00 0.00 0.00 75 1011.9
20260509073027 10 202 0.0 0.0 0.00 0.00 0.00 75 1012.5
20260509073005 11 0 0.0 0.0 0.00 0.00 0.00 76 1012.0
20260509072903 11 202 0.0 0.0 0.00 0.00 0.00 75 1012.5
20260509072603 11 0 0.0 0.0 0.00 0.00 0.00 76 1012.0
20260509072404 11 0 0.0 0.0 0.00 0.00 0.00 76 1012.0
20260509072204 10 0 0.0 0.0 0.00 0.00 0.00 76 1012.1
20260509072003 10 0 0.0 0.0 0.00 0.00 0.00 76 1012.0
20260509071904 10 202 0.0 0.0 0.00 0.00 0.00 76 1012.5
20260509071804 10 0 0.0 0.0 0.00 0.00 0.00 76 1012.0
20260509071603 10 0 0.0 0.0 0.00 0.00 0.00 77 1012.0
20260509071531 10 202 0.0 0.0 0.00 0.00 0.00 77 1012.4
20260509071404 10 0 0.0 0.0 0.00 0.00 0.00 78 1012.0
20260509071204 10 0 0.0 0.0 0.00 0.00 0.00 78 1012.0
20260509070903 10 202 0.0 4.8 0.00 0.00 0.00 78 1012.4
20260509070804 10 0 0.0 4.8 0.00 0.00 0.00 78 1011.9
20260509070603 10 0 0.0 4.8 0.00 0.00 0.00 80 1011.9
20260509070405 10 0 0.0 0.0 0.00 0.00 0.00 81 1012.0
20260509070203 10 0 0.0 0.0 0.00 0.00 0.00 80 1012.0
20260509070043 10 202 0.0 0.0 0.00 0.00 0.00 82 1012.4
20260509070005 10 202 0.0 0.0 0.00 0.00 0.00 82 1012.4
20260509065904 10 115 0.0 0.0 0.00 0.00 0.00 82 1012.3
20260509065805 10 0 0.0 0.0 0.00 0.00 0.00 81 1011.9
20260509065603 10 0 0.0 0.0 0.00 0.00 0.00 84 1011.9
20260509065204 10 0 0.0 0.0 0.00 0.00 0.00 85 1011.9
20260509065004 10 0 0.0 0.0 0.00 0.00 0.00 86 1011.9
20260509064903 10 114 0.0 8.0 0.00 0.00 0.00 86 1012.4
20260509064804 10 0 0.0 8.0 0.00 0.00 0.00 86 1011.9
20260509064603 10 0 0.0 8.0 0.00 0.00 0.00 85 1011.9
20260509064545 9 114 0.0 0.0 0.00 0.00 0.00 85 1012.3
20260509064510 9 114 0.0 0.0 0.00 0.00 0.00 88 1012.3
20260509064403 9 129 0.0 0.0 0.00 0.00 0.00 88 1012.4
20260509064204 9 0 0.0 0.0 0.00 0.00 0.00 88 1011.9
20260509064003 9 0 0.0 0.0 0.00 0.00 0.00 88 1011.9
20260509063903 9 129 0.0 0.0 0.00 0.00 0.00 89 1012.3
20260509063804 9 0 0.0 0.0 0.00 0.00 0.00 89 1011.9
20260509063604 9 0 0.0 0.0 0.00 0.00 0.00 88 1012.0
20260509063404 9 129 0.0 0.0 0.00 0.00 0.00 88 1012.5
20260509063204 9 0 0.0 0.0 0.00 0.00 0.00 88 1012.0
20260509063052 9 129 0.0 0.0 0.00 0.00 0.00 88 1012.5
20260509063016 9 129 0.0 0.0 0.00 0.00 0.00 88 1012.5
20260509063004 9 0 0.0 0.0 0.00 0.00 0.00 89 1012.1
20260509062904 9 129 0.0 0.0 0.00 0.00 0.00 89 1012.5
20260509062803 9 0 0.0 0.0 0.00 0.00 0.00 89 1012.1
20260509062604 9 0 0.0 0.0 0.00 0.00 0.00 89 1012.1
20260509062404 9 0 0.0 0.0 0.00 0.00 0.00 89 1012.1
20260509062203 9 0 0.0 0.0 0.00 0.00 0.00 90 1012.1
20260509061903 9 129 0.0 0.0 0.00 0.00 0.00 90 1012.6
20260509061604 9 0 0.0 0.0 0.00 0.00 0.00 90 1012.1
20260509061528 8 129 0.0 0.0 0.00 0.00 0.00 90 1012.6
20260509061404 9 0 0.0 0.0 0.00 0.00 0.00 90 1012.2
20260509061004 9 0 0.0 0.0 0.00 0.00 0.00 90 1012.3
20260509060903 9 129 0.0 0.0 0.00 0.00 0.00 90 1012.7
20260509060804 9 0 0.0 0.0 0.00 0.00 0.00 90 1012.3
20260509060604 8 0 0.0 0.0 0.00 0.00 0.00 90 1012.2
20260509060404 8 129 0.0 0.0 0.00 0.00 0.00 90 1012.8
20260509060205 8 0 0.0 0.0 0.00 0.00 0.00 89 1012.4
20260509060028 8 129 0.0 0.0 0.00 0.00 0.00 90 1012.8
20260509060004 8 0 0.0 0.0 0.00 0.00 0.00 90 1012.4
20260509055804 8 0 0.0 0.0 0.00 0.00 0.00 90 1012.4
20260509055605 8 0 0.0 0.0 0.00 0.00 0.00 89 1012.4
20260509055404 8 0 0.0 0.0 0.00 0.00 0.00 89 1012.4
20260509055205 8 0 0.0 0.0 0.00 0.00 0.00 89 1012.4
20260509055004 8 0 0.0 0.0 0.00 0.00 0.00 89 1012.5
20260509054903 9 129 0.0 0.0 0.00 0.00 0.00 89 1013.0
20260509054804 8 0 0.0 0.0 0.00 0.00 0.00 89 1012.6
20260509054604 9 0 0.0 0.0 0.00 0.00 0.00 89 1012.6
20260509054545 8 129 0.0 0.0 0.00 0.00 0.00 89 1013.0
20260509054500 8 129 0.0 0.0 0.00 0.00 0.00 89 1013.0
20260509054404 9 0 0.0 0.0 0.00 0.00 0.00 88 1012.6
20260509054204 9 0 0.0 0.0 0.00 0.00 0.00 88 1012.6
20260509054004 9 0 0.0 0.0 0.00 0.00 0.00 88 1012.6
20260509053804 9 0 0.0 0.0 0.00 0.00 0.00 88 1012.7
20260509053605 9 0 0.0 0.0 0.00 0.00 0.00 88 1012.7
20260509053204 9 0 0.0 0.0 0.00 0.00 0.00 88 1012.8
20260509053134 8 129 0.0 0.0 0.00 0.00 0.00 88 1013.2
20260509053008 8 129 0.0 0.0 0.00 0.00 0.00 87 1013.2
20260509053004 9 0 0.0 0.0 0.00 0.00 0.00 87 1012.7
20260509052903 9 129 0.0 0.0 0.00 0.00 0.00 87 1013.2
20260509052803 9 0 0.0 0.0 0.00 0.00 0.00 87 1012.7
20260509052604 9 0 0.0 0.0 0.00 0.00 0.00 87 1012.8
20260509052404 9 0 0.0 0.0 0.00 0.00 0.00 87 1012.7
20260509052204 9 0 0.0 0.0 0.00 0.00 0.00 87 1012.7
20260509052004 9 0 0.0 0.0 0.00 0.00 0.00 87 1012.8
20260509051903 9 129 0.0 0.0 0.00 0.00 0.00 87 1013.2
20260509051803 9 0 0.0 0.0 0.00 0.00 0.00 87 1012.7
20260509051604 9 0 0.0 0.0 0.00 0.00 0.00 86 1012.7
20260509051551 9 129 0.0 0.0 0.00 0.00 0.00 86 1013.2
20260509051516 9 129 0.0 0.0 0.00 0.00 0.00 86 1013.2
20260509051404 9 0 0.0 0.0 0.00 0.00 0.00 86 1012.8
20260509051203 9 0 0.0 0.0 0.00 0.00 0.00 86 1012.9
20260509050904 10 129 0.0 0.0 0.00 0.00 0.00 86 1013.3
20260509050803 10 0 0.0 0.0 0.00 0.00 0.00 86 1012.9
20260509050604 10 0 0.0 0.0 0.00 0.00 0.00 86 1012.9
20260509050404 10 129 0.0 0.0 0.00 0.00 0.00 85 1013.3
20260509050035 9 129 0.0 0.0 0.00 0.00 0.00 85 1013.3
20260509050004 10 0 0.0 0.0 0.00 0.00 0.00 85 1012.9
20260509045904 10 129 0.0 0.0 0.00 0.00 0.00 85 1013.3
20260509045805 10 0 0.0 0.0 0.00 0.00 0.00 85 1012.9
20260509045405 10 0 0.0 0.0 0.00 0.00 0.00 85 1012.9
20260509045204 10 0 0.0 0.0 0.00 0.00 0.00 85 1012.9
20260509044903 10 129 0.0 0.0 0.00 0.00 0.00 84 1013.4
20260509044803 10 0 0.0 0.0 0.00 0.00 0.00 84 1012.9
20260509044604 10 0 0.0 0.0 0.00 0.00 0.00 84 1013.0
20260509044526 10 129 0.0 0.0 0.00 0.00 0.00 84 1013.4
20260509044405 10 0 0.0 0.0 0.00 0.00 0.00 84 1012.9
20260509044204 10 0 0.0 0.0 0.00 0.00 0.00 84 1012.9
20260509044005 10 0 0.0 0.0 0.00 0.00 0.00 84 1012.8
20260509043904 10 129 0.0 0.0 0.00 0.00 0.00 84 1013.3
20260509043804 10 0 0.0 0.0 0.00 0.00 0.00 84 1012.8
20260509043404 10 0 0.0 0.0 0.00 0.00 0.00 83 1012.8
20260509043204 10 0 0.0 0.0 0.00 0.00 0.00 83 1012.8
20260509043036 10 129 0.0 0.0 0.00 0.00 0.00 82 1013.3
20260509042903 10 129 0.0 0.0 0.00 0.00 0.00 83 1013.2
20260509042804 10 0 0.0 0.0 0.00 0.00 0.00 83 1012.8
20260509042605 10 0 0.0 0.0 0.00 0.00 0.00 83 1012.8
20260509042404 10 129 0.0 0.0 0.00 0.00 0.00 82 1013.3
20260509042005 10 0 0.0 0.0 0.00 0.00 0.00 82 1012.9
20260509041904 10 129 0.0 0.0 0.00 0.00 0.00 82 1013.3
20260509041604 10 0 0.0 0.0 0.00 0.00 0.00 81 1013.0
20260509041545 10 129 0.0 0.0 0.00 0.00 0.00 81 1013.5
20260509041510 10 129 0.0 0.0 0.00 0.00 0.00 81 1013.5
20260509041404 10 0 0.0 0.0 0.00 0.00 0.00 81 1013.0
20260509041205 10 0 0.0 0.0 0.00 0.00 0.00 81 1013.0
20260509041004 10 0 0.0 0.0 0.00 0.00 0.00 81 1013.0
20260509040804 10 0 0.0 0.0 0.00 0.00 0.00 81 1013.0
20260509040604 10 0 0.0 0.0 0.00 0.00 0.00 80 1013.0
20260509040404 10 0 0.0 0.0 0.00 0.00 0.00 80 1013.1
20260509040205 10 0 0.0 0.0 0.00 0.00 0.00 80 1013.0
20260509040109 10 129 0.0 0.0 0.00 0.00 0.00 80 1013.4
20260509040016 10 129 0.0 0.0 0.00 0.00 0.00 80 1013.4
20260509040005 10 0 0.0 0.0 0.00 0.00 0.00 80 1013.0
20260509035903 10 129 0.0 0.0 0.00 0.00 0.00 79 1013.4
20260509035805 10 0 0.0 0.0 0.00 0.00 0.00 79 1013.0
20260509035605 11 0 0.0 0.0 0.00 0.00 0.00 79 1013.0
20260509035404 11 0 0.0 0.0 0.00 0.00 0.00 79 1013.0
20260509035004 11 0 0.0 0.0 0.00 0.00 0.00 78 1013.0
20260509034904 11 129 0.0 0.0 0.00 0.00 0.00 78 1013.5
20260509034804 11 0 0.0 0.0 0.00 0.00 0.00 78 1013.1
20260509034604 11 0 0.0 0.0 0.00 0.00 0.00 78 1013.1
20260509034541 10 129 0.0 0.0 0.00 0.00 0.00 78 1013.5
20260509034505 10 129 0.0 0.0 0.00 0.00 0.00 78 1013.5
20260509034404 11 0 0.0 0.0 0.00 0.00 0.00 78 1013.1
20260509034204 11 0 0.0 0.0 0.00 0.00 0.00 77 1013.0
20260509034004 11 0 0.0 0.0 0.00 0.00 0.00 77 1013.1
20260509033903 11 129 0.0 0.0 0.00 0.00 0.00 77 1013.5
20260509033804 11 0 0.0 0.0 0.00 0.00 0.00 77 1013.1
20260509033603 11 0 0.0 0.0 0.00 0.00 0.00 77 1013.0
20260509033404 11 0 0.0 0.0 0.00 0.00 0.00 76 1013.1
20260509033043 11 129 0.0 0.0 0.00 0.00 0.00 76 1013.5
20260509033007 11 129 0.0 0.0 0.00 0.00 0.00 76 1013.5
20260509033005 11 0 0.0 0.0 0.00 0.00 0.00 76 1013.0
20260509032904 11 129 0.0 0.0 0.00 0.00 0.00 76 1013.5
20260509032804 11 0 0.0 0.0 0.00 0.00 0.00 75 1013.0
20260509032605 11 0 0.0 0.0 0.00 0.00 0.00 75 1013.1
20260509032404 11 0 0.0 0.0 0.00 0.00 0.00 74 1013.2
20260509032004 12 0 0.0 0.0 0.00 0.00 0.00 74 1013.1
20260509031903 12 129 0.0 0.0 0.00 0.00 0.00 74 1013.6
20260509031603 12 0 0.0 0.0 0.00 0.00 0.00 73 1013.1
20260509031558 11 129 0.0 0.0 0.00 0.00 0.00 73 1013.6
20260509031520 12 129 0.0 0.0 0.00 0.00 0.00 73 1013.6
20260509031204 12 0 0.0 0.0 0.00 0.00 0.00 72 1013.2
20260509031005 12 0 0.0 0.0 0.00 0.00 0.00 72 1013.2
20260509030904 12 129 0.0 0.0 0.00 0.00 0.00 73 1013.7
20260509030805 12 0 0.0 0.0 0.00 0.00 0.00 73 1013.2
20260509030604 12 0 0.0 0.0 0.00 0.00 0.00 72 1013.2
20260509030204 12 0 0.0 0.0 0.00 0.00 0.00 71 1013.3
20260509030033 12 129 0.0 0.0 0.00 0.00 0.00 71 1013.7
20260509030004 12 0 0.0 0.0 0.00 0.00 0.00 71 1013.3
20260509025904 12 129 0.0 0.0 0.00 0.00 0.00 71 1013.7
20260509025604 12 0 0.0 0.0 0.00 0.00 0.00 72 1013.2
20260509025404 12 129 0.0 0.0 0.00 0.00 0.00 72 1013.7
20260509025004 12 0 0.0 0.0 0.00 0.00 0.00 72 1013.2
20260509024804 12 0 0.0 0.0 0.00 0.00 0.00 72 1013.3
20260509024605 12 0 0.0 0.0 0.00 0.00 0.00 71 1013.3
20260509024544 12 129 0.0 0.0 0.00 0.00 0.00 71 1013.7
20260509024504 12 129 0.0 0.0 0.00 0.00 0.00 71 1013.7
20260509024403 12 129 0.0 0.0 0.00 0.00 0.00 70 1013.8
20260509024204 12 0 0.0 0.0 0.00 0.00 0.00 70 1013.3
20260509024004 13 0 0.0 0.0 0.00 0.00 0.00 71 1013.2
20260509023903 12 129 0.0 0.0 0.00 0.00 0.00 71 1013.7
20260509023803 13 0 0.0 0.0 0.00 0.00 0.00 71 1013.2
20260509023604 13 0 0.0 0.0 0.00 0.00 0.00 71 1013.2
20260509023204 13 0 0.0 0.0 0.00 0.00 0.00 72 1013.2
20260509023024 12 129 0.0 0.0 0.00 0.00 0.00 72 1013.6
20260509023004 13 0 0.0 0.0 0.00 0.00 0.00 72 1013.2
20260509022904 13 129 0.0 0.0 0.00 0.00 0.00 71 1013.7
20260509022805 13 0 0.0 0.0 0.00 0.00 0.00 71 1013.2
20260509022604 13 0 0.0 0.0 0.00 0.00 0.00 69 1013.3
20260509022404 13 0 0.0 0.0 0.00 0.00 0.00 68 1013.3
20260509022204 13 0 0.0 0.0 0.00 0.00 0.00 69 1013.3
20260509022004 13 0 0.0 0.0 0.00 0.00 0.00 70 1013.2
20260509021904 13 129 0.0 0.0 0.00 0.00 0.00 69 1013.7
20260509021805 13 0 0.0 0.0 0.00 0.00 0.00 70 1013.2
20260509021605 13 0 0.0 0.0 0.00 0.00 0.00 67 1013.2
20260509021526 12 129 0.0 0.0 0.00 0.00 0.00 67 1013.7
20260509021404 13 0 0.0 0.0 0.00 0.00 0.00 69 1013.2
20260509021205 13 0 0.0 0.0 0.00 0.00 0.00 68 1013.2
20260509021004 13 0 0.0 0.0 0.00 0.00 0.00 68 1013.3
20260509020905 13 129 0.0 0.0 0.00 0.00 0.00 68 1013.8
20260509020804 13 0 0.0 0.0 0.00 0.00 0.00 68 1013.3
20260509020605 13 0 0.0 0.0 0.00 0.00 0.00 68 1013.3
20260509020404 13 0 0.0 0.0 0.00 0.00 0.00 71 1013.4
20260509020204 13 0 0.0 0.0 0.00 0.00 0.00 71 1013.4
20260509020045 12 129 0.0 0.0 0.00 0.00 0.00 72 1013.8
20260509020002 12 129 0.0 0.0 0.00 0.00 0.00 71 1013.7
20260509015804 13 0 0.0 0.0 0.00 0.00 0.00 67 1013.3
20260509015604 13 0 0.0 0.0 0.00 0.00 0.00 69 1013.3
20260509015404 13 129 0.0 0.0 0.00 0.00 0.00 70 1013.7
20260509015205 13 0 0.0 0.0 0.00 0.00 0.00 66 1013.2
20260509015004 13 0 0.0 0.0 0.00 0.00 0.00 66 1013.2
20260509014904 13 129 0.0 0.0 0.00 0.00 0.00 66 1013.6
20260509014604 13 0 0.0 0.0 0.00 0.00 0.00 67 1013.1
20260509014544 13 129 0.0 0.0 0.00 0.00 0.00 68 1013.6
20260509014508 13 129 0.0 0.0 0.00 0.00 0.00 68 1013.6
20260509014404 13 0 0.0 0.0 0.00 0.00 0.00 69 1013.1
20260509013805 13 0 0.0 0.0 0.00 0.00 0.00 68 1013.1
20260509013604 13 0 0.0 0.0 0.00 0.00 0.00 70 1013.1
20260509013404 13 0 0.0 0.0 0.00 0.00 0.00 69 1013.1
20260509013204 13 0 0.0 0.0 0.00 0.00 0.00 67 1013.2
20260509013104 13 129 0.0 0.0 0.00 0.00 0.00 67 1013.6
20260509013014 13 129 0.0 0.0 0.00 0.00 0.00 67 1013.6
20260509013004 13 0 0.0 0.0 0.00 0.00 0.00 67 1013.1
20260509012804 13 0 0.0 0.0 0.00 0.00 0.00 68 1013.1
20260509012604 13 0 0.0 0.0 0.00 0.00 0.00 69 1013.2
20260509012405 13 0 0.0 0.0 0.00 0.00 0.00 67 1013.2
20260509012204 13 0 0.0 6.4 0.00 0.00 0.00 66 1013.1
20260509012004 13 0 0.0 3.2 0.00 0.00 0.00 64 1013.3
20260509011604 13 0 0.0 0.0 0.00 0.00 0.00 64 1013.1
20260509011517 13 317 0.0 0.0 0.00 0.00 0.00 63 1013.6
20260509011404 13 0 0.0 0.0 0.00 0.00 0.00 61 1013.1
20260509011204 13 0 0.0 0.0 0.00 0.00 0.00 61 1013.1
20260509011004 13 0 0.0 0.0 0.00 0.00 0.00 59 1013.1
20260509010904 13 317 0.0 0.0 0.00 0.00 0.00 61 1013.5
20260509010804 13 0 0.0 0.0 0.00 0.00 0.00 61 1013.0
20260509010604 13 0 0.0 0.0 0.00 0.00 0.00 65 1013.0
20260509010404 13 317 0.0 0.0 0.00 0.00 0.00 65 1013.5
20260509010204 13 0 0.0 0.0 0.00 0.00 0.00 64 1013.0
20260509010053 13 317 0.0 0.0 0.00 0.00 0.00 61 1013.4
20260509010020 13 317 0.0 0.0 0.00 0.00 0.00 61 1013.4
20260509010004 13 0 0.0 0.0 0.00 0.00 0.00 61 1012.9
20260509005903 13 317 0.0 0.0 0.00 0.00 0.00 62 1013.4
20260509005804 13 0 0.0 0.0 0.00 0.00 0.00 62 1012.9
20260509005604 13 0 0.0 0.0 0.00 0.00 0.00 62 1012.9
20260509005204 13 0 0.0 0.0 0.00 0.00 0.00 61 1012.8
20260509005003 13 0 0.0 0.0 0.00 0.00 0.00 58 1012.8
20260509004905 13 317 0.0 0.0 0.00 0.00 0.00 60 1013.2
20260509004804 13 0 0.0 0.0 0.00 0.00 0.00 60 1012.8
20260509004604 13 0 0.0 0.0 0.00 0.00 0.00 58 1012.7
20260509004528 13 317 0.0 0.0 0.00 0.00 0.00 58 1013.2
20260509004404 13 317 0.0 0.0 0.00 0.00 0.00 58 1013.2
20260509004204 13 0 0.0 0.0 0.00 0.00 0.00 57 1012.7
20260509004004 13 0 0.0 0.0 0.00 0.00 0.00 57 1012.7
20260509003904 13 317 0.0 0.0 0.00 0.00 0.00 57 1013.1
20260509003804 13 0 0.0 0.0 0.00 0.00 0.00 57 1012.7
20260509003604 13 0 0.0 0.0 0.00 0.00 0.00 57 1012.6
20260509003204 13 0 0.0 0.0 0.00 0.00 0.00 58 1012.6
20260509003044 13 317 0.0 0.0 0.00 0.00 0.00 56 1013.1
20260509002604 14 0 0.0 0.0 0.00 0.00 0.00 57 1012.5
20260509002404 14 317 0.0 0.0 0.00 0.00 0.00 52 1013.0
20260509002204 14 0 0.0 0.0 0.00 0.00 0.00 53 1012.4
20260509002004 14 0 0.0 0.0 0.00 0.00 0.00 56 1012.4
20260509001903 14 317 0.0 0.0 0.00 0.00 0.00 56 1012.8
20260509001804 14 0 0.0 0.0 0.00 0.00 0.00 56 1012.3
20260509001604 15 0 0.0 0.0 0.00 0.00 0.00 55 1012.3
20260509001538 14 317 0.0 0.0 0.00 0.00 0.00 55 1012.7
20260509001501 14 317 0.0 0.0 0.00 0.00 0.00 52 1012.8
20260509001404 15 0 0.0 0.0 0.00 0.00 0.00 52 1012.3
20260509001204 15 0 0.0 0.0 0.00 0.00 0.00 52 1012.3
20260509001005 15 0 0.0 0.0 0.00 0.00 0.00 51 1012.3
20260509000804 15 0 0.0 0.0 0.00 0.00 0.00 53 1012.2
20260509000604 15 0 0.0 0.0 0.00 0.00 0.00 54 1012.1
20260509000405 15 0 0.0 0.0 0.00 0.00 0.00 51 1012.2
20260509000052 15 317 0.0 0.0 0.00 0.00 0.00 51 1012.6
20260509000010 15 330 0.0 0.0 0.00 0.00 0.00 51 1012.6
20260509000004 15 0 0.0 0.0 0.00 0.00 0.00 51 1012.1
20260508235903 15 331 0.0 0.0 0.00 0.00 0.00 52 1012.5
20260508235804 15 0 0.0 0.0 0.00 0.00 0.00 52 1012.1
20260508235605 15 0 0.0 0.0 0.00 0.00 0.00 53 1012.1
20260508235204 15 0 0.0 0.0 0.00 0.00 0.00 49 1012.1
20260508235004 15 0 0.0 0.0 0.00 0.00 0.00 48 1012.1
20260508234903 15 331 0.0 0.0 0.00 0.00 0.00 48 1012.5
20260508234804 15 0 0.0 0.0 0.00 0.00 0.00 48 1012.0
20260508234548 15 330 0.0 0.0 0.00 0.00 0.00 50 1012.5
20260508234511 15 331 0.0 0.0 0.00 0.00 0.00 51 1012.5
20260508234403 16 330 0.0 0.0 0.00 0.00 0.00 50 1012.5
20260508234203 16 0 0.0 0.0 0.00 0.00 0.00 51 1012.0
20260508234004 16 0 0.0 0.0 0.00 0.00 0.00 52 1012.0
20260508233903 16 331 0.0 0.0 0.00 0.00 0.00 49 1012.5
20260508233802 16 0 0.0 0.0 0.00 0.00 0.00 49 1012.0
20260508233603 16 0 0.0 0.0 0.00 0.00 0.00 47 1012.1
20260508233403 16 0 0.0 0.0 0.00 0.00 0.00 49 1012.0
20260508233053 16 330 0.0 0.0 0.00 0.00 0.00 48 1012.5
20260508233017 16 331 0.0 0.0 0.00 0.00 0.00 51 1012.4
20260508233003 16 0 0.0 0.0 0.00 0.00 0.00 53 1012.0
20260508232904 16 331 0.0 0.0 0.00 0.00 0.00 54 1012.4
20260508232803 16 0 0.0 0.0 0.00 0.00 0.00 54 1012.0
20260508232603 16 0 0.0 0.0 0.00 0.00 0.00 49 1011.9
20260508232403 16 0 0.0 0.0 0.00 0.00 0.00 49 1011.9
20260508232202 16 0 0.0 0.0 0.00 0.00 0.00 48 1011.9
20260508232003 16 0 0.0 0.0 0.00 0.00 0.00 47 1011.9
20260508231902 16 331 0.0 0.0 0.00 0.00 0.00 46 1012.3
20260508231804 16 0 0.0 0.0 0.00 0.00 0.00 48 1011.9
20260508231602 16 0 0.0 0.0 0.00 0.00 0.00 53 1011.9
20260508231554 16 330 0.0 0.0 0.00 0.00 0.00 53 1012.3
20260508231517 16 331 0.0 0.0 0.00 0.00 0.00 53 1012.4
20260508231403 16 0 0.0 0.0 0.00 0.00 0.00 49 1011.9
20260508231203 17 0 0.0 0.0 0.00 0.00 0.00 49 1011.9
20260508231003 17 0 0.0 0.0 0.00 0.00 0.00 47 1011.9
20260508230902 17 296 0.0 0.0 0.00 0.00 0.00 43 1012.4
20260508230803 17 0 0.0 0.0 0.00 0.00 0.00 42 1011.9
20260508230603 17 0 0.0 0.0 0.00 0.00 0.00 45 1011.9
20260508230402 17 296 0.0 0.0 0.00 0.00 0.00 43 1012.3
20260508230204 17 0 0.0 0.0 0.00 0.00 0.00 45 1011.8
20260508230032 17 296 0.0 0.0 0.00 0.00 0.00 49 1012.3
20260508230003 17 0 0.0 0.0 0.00 0.00 0.00 44 1011.8
20260508225903 17 295 0.0 0.0 0.00 0.00 0.00 43 1012.3
20260508225804 17 0 0.0 0.0 0.00 0.00 0.00 44 1011.8
20260508225602 17 0 0.0 0.0 0.00 0.00 0.00 46 1011.7
20260508225404 17 0 0.0 0.0 0.00 0.00 0.00 46 1011.7
20260508225204 17 0 0.0 0.0 0.00 0.00 0.00 44 1011.7
20260508225003 17 0 0.0 0.0 0.00 0.00 0.00 44 1011.7
20260508224903 17 296 0.0 0.0 0.00 0.00 0.00 42 1012.2
20260508224803 17 0 0.0 0.0 0.00 0.00 0.00 42 1011.7
20260508224604 17 0 0.0 0.0 0.00 0.00 0.00 40 1011.6
20260508224531 17 296 0.0 0.0 0.00 0.00 0.00 43 1012.1
20260508224403 17 0 0.0 0.0 0.00 0.00 0.00 44 1011.7
20260508224203 17 0 0.0 3.2 0.00 0.00 0.00 39 1011.7
20260508224003 17 0 0.0 3.2 0.00 0.00 0.00 40 1011.7
20260508223903 17 321 0.0 1.6 0.00 0.00 0.00 39 1012.1
20260508223803 17 0 0.0 0.0 0.00 0.00 0.00 39 1011.7
20260508223603 17 0 0.0 3.2 0.00 0.00 0.00 39 1011.6
20260508223403 17 333 0.0 3.2 0.00 0.00 0.00 39 1012.1
20260508223204 17 0 0.0 0.0 0.00 0.00 0.00 40 1011.6
20260508223035 17 330 1.6 0.0 0.00 0.00 0.00 40 1012.1
20260508223004 17 0 1.6 0.0 0.00 0.00 0.00 41 1011.7
20260508222902 17 330 0.0 0.0 0.00 0.00 0.00 40 1012.1
20260508222804 17 0 1.6 0.0 0.00 0.00 0.00 40 1011.7
20260508222605 17 315 1.6 6.4 0.00 0.00 0.00 38 1011.7
20260508222403 17 308 1.6 8.0 0.00 0.00 0.00 38 1011.7
20260508222204 17 0 0.0 9.7 0.00 0.00 0.00 38 1011.6
20260508222003 17 0 0.0 4.8 0.00 0.00 0.00 39 1011.7
20260508221903 17 304 0.0 4.8 0.00 0.00 0.00 40 1012.2
20260508221803 17 0 0.0 4.8 0.00 0.00 0.00 39 1011.8
20260508221603 17 0 0.0 3.2 0.00 0.00 0.00 40 1011.7
20260508221544 17 257 0.0 0.0 0.00 0.00 0.00 40 1012.2
20260508221510 17 175 0.0 0.0 0.00 0.00 0.00 42 1012.2
20260508221204 17 0 0.0 8.0 0.00 0.00 0.00 38 1011.7
20260508221003 17 0 0.0 0.0 0.00 0.00 0.00 43 1011.7
20260508220902 17 288 0.0 3.2 0.00 0.00 0.00 41 1012.1
20260508220803 17 0 0.0 0.0 0.00 0.00 0.00 41 1011.7
20260508220046 17 278 0.0 0.0 0.00 0.00 0.00 39 1012.1
20260508220015 17 196 0.0 0.0 0.00 0.00 0.00 38 1012.1
20260508220003 17 0 0.0 6.4 0.00 0.00 0.00 38 1011.6
20260508215903 18 216 0.0 4.8 0.00 0.00 0.00 38 1012.1
20260508215803 18 0 0.0 3.2 0.00 0.00 0.00 38 1011.6
20260508215603 18 0 1.6 0.0 0.00 0.00 0.00 40 1011.7
20260508215403 18 262 1.6 12.9 0.00 0.00 0.00 40 1012.1
20260508215204 18 0 1.6 0.0 0.00 0.00 0.00 43 1011.7
20260508215003 18 0 1.6 0.0 0.00 0.00 0.00 41 1011.7
20260508214904 18 286 0.0 12.9 0.00 0.00 0.00 38 1012.2
20260508214804 18 299 1.6 12.9 0.00 0.00 0.00 37 1011.7
20260508214557 18 289 1.6 0.0 0.00 0.00 0.00 37 1012.1
20260508214521 18 272 1.6 0.0 0.00 0.00 0.00 39 1012.1
20260508214403 18 276 1.6 9.7 0.00 0.00 0.00 38 1011.7
20260508214203 18 276 1.6 12.9 0.00 0.00 0.00 35 1011.7
20260508214003 18 278 1.6 12.9 0.00 0.00 0.00 35 1011.7
20260508213903 18 276 1.6 12.9 0.00 0.00 0.00 38 1012.1
20260508213803 18 309 1.6 12.9 0.00 0.00 0.00 37 1011.7
20260508213603 18 338 1.6 12.9 0.00 0.00 0.00 35 1011.6
20260508213204 18 274 1.6 11.3 0.00 0.00 0.00 37 1011.6
20260508213029 18 276 1.6 0.0 0.00 0.00 0.00 36 1012.1
20260508213004 19 278 1.6 11.3 0.00 0.00 0.00 34 1011.6
20260508212903 19 309 6.4 22.5 0.00 0.00 0.00 33 1012.1
20260508212805 19 275 1.6 22.5 0.00 0.00 0.00 32 1011.6
20260508212403 19 0 0.0 11.3 0.00 0.00 0.00 40 1011.6
20260508212203 18 0 0.0 0.0 0.00 0.00 0.00 40 1011.7
20260508212003 18 0 0.0 0.0 0.00 0.00 0.00 37 1011.6
20260508211902 18 130 0.0 11.3 0.00 0.00 0.00 38 1012.1
20260508211803 18 0 0.0 11.3 0.00 0.00 0.00 37 1011.6
20260508211603 18 283 1.6 11.3 0.00 0.00 0.00 39 1011.6
20260508211540 18 290 1.6 0.0 0.00 0.00 0.00 39 1012.1
20260508211502 18 268 1.6 0.0 0.00 0.00 0.00 39 1012.1
20260508211403 18 290 1.6 6.4 0.00 0.00 0.00 39 1011.6
20260508211203 18 0 0.0 6.4 0.00 0.00 0.00 37 1011.7
20260508211003 18 0 0.0 0.0 0.00 0.00 0.00 36 1011.7
20260508210903 18 19 1.6 8.0 0.00 0.00 0.00 36 1012.1
20260508210404 18 0 0.0 4.8 0.00 0.00 0.00 36 1011.7
20260508210402 18 315 0.0 4.8 0.00 0.00 0.00 38 1012.2
20260508210203 18 0 0.0 1.6 0.00 0.00 0.00 37 1011.8
20260508210049 18 286 0.0 0.0 0.00 0.00 0.00 37 1012.3
20260508210015 18 286 0.0 0.0 0.00 0.00 0.00 37 1012.2
20260508210003 18 0 0.0 1.6 0.00 0.00 0.00 37 1011.7
20260508205903 18 302 1.6 11.3 0.00 0.00 0.00 36 1012.2
20260508205803 18 0 0.0 11.3 0.00 0.00 0.00 36 1011.7
20260508205604 18 294 1.6 6.4 0.00 0.00 0.00 38 1011.6
20260508205403 18 331 0.0 3.2 0.00 0.00 0.00 38 1012.2
20260508205203 18 248 1.6 3.2 0.00 0.00 0.00 36 1011.7
20260508205004 18 255 1.6 4.8 0.00 0.00 0.00 36 1011.7
20260508204903 18 230 1.6 20.9 0.00 0.00 0.00 36 1012.1
20260508204603 19 0 0.0 20.9 0.00 0.00 0.00 35 1011.7
20260508204555 18 268 0.0 0.0 0.00 0.00 0.00 35 1012.1
20260508204518 18 160 0.0 0.0 0.00 0.00 0.00 35 1012.2
20260508204404 19 0 0.0 1.6 0.00 0.00 0.00 37 1011.7
20260508204203 19 0 0.0 6.4 0.00 0.00 0.00 36 1011.7
20260508204003 20 171 1.6 6.4 0.00 0.00 0.00 37 1011.6
20260508203902 20 154 0.0 9.7 0.00 0.00 0.00 35 1012.1
20260508203803 20 172 1.6 4.8 0.00 0.00 0.00 36 1011.6
20260508203602 20 239 3.2 9.7 0.00 0.00 0.00 34 1011.7
20260508203404 20 228 3.2 4.8 0.00 0.00 0.00 35 1011.7
20260508203203 20 292 3.2 9.7 0.00 0.00 0.00 34 1011.7
20260508203100 19 215 3.2 0.0 0.00 0.00 0.00 35 1012.2
20260508203025 19 296 3.2 0.0 0.00 0.00 0.00 35 1012.1
20260508203003 20 305 3.2 16.1 0.00 0.00 0.00 35 1011.7
20260508202904 20 286 3.2 19.3 0.00 0.00 0.00 34 1012.2
20260508202803 20 305 1.6 17.7 0.00 0.00 0.00 34 1011.6
20260508202604 20 0 0.0 14.5 0.00 0.00 0.00 35 1011.5
20260508202404 20 0 0.0 9.7 0.00 0.00 0.00 36 1011.6
20260508202204 20 0 0.0 9.7 0.00 0.00 0.00 34 1011.8
20260508201903 20 209 0.0 0.0 0.00 0.00 0.00 35 1012.3
20260508201803 20 0 1.6 0.0 0.00 0.00 0.00 35 1011.8
20260508201603 20 0 1.6 0.0 0.00 0.00 0.00 34 1011.8
20260508201534 20 180 1.6 0.0 0.00 0.00 0.00 34 1012.2
20260508201403 20 254 1.6 14.5 0.00 0.00 0.00 32 1011.8
20260508201204 20 205 1.6 4.8 0.00 0.00 0.00 34 1011.9
20260508201003 20 300 1.6 8.0 0.00 0.00 0.00 33 1011.7
20260508200804 20 267 3.2 6.4 0.00 0.00 0.00 37 1011.8
20260508200603 20 280 4.8 9.7 0.00 0.00 0.00 35 1011.7
20260508200403 20 308 4.8 17.7 0.00 0.00 0.00 39 1011.8
20260508200204 20 311 6.4 17.7 0.00 0.00 0.00 32 1011.8
20260508200050 20 225 6.4 0.0 0.00 0.00 0.00 31 1012.4
20260508200003 20 282 6.4 19.3 0.00 0.00 0.00 31 1011.9
20260508195903 20 271 8.0 24.1 0.00 0.00 0.00 32 1012.4
20260508195803 20 287 4.8 17.7 0.00 0.00 0.00 34 1011.9
20260508195603 20 302 4.8 24.1 0.00 0.00 0.00 33 1012.0
20260508195404 20 228 4.8 22.5 0.00 0.00 0.00 38 1012.5
20260508195203 20 304 3.2 22.5 0.00 0.00 0.00 37 1012.0
20260508195003 20 297 3.2 16.1 0.00 0.00 0.00 38 1012.1
20260508194803 20 297 1.6 12.9 0.00 0.00 0.00 34 1012.0
20260508194603 20 304 1.6 11.3 0.00 0.00 0.00 33 1012.1
20260508194544 20 310 1.6 0.0 0.00 0.00 0.00 33 1012.5
20260508194509 20 290 1.6 0.0 0.00 0.00 0.00 37 1012.6
20260508194203 20 285 1.6 20.9 0.00 0.00 0.00 35 1012.2
20260508194004 20 0 1.6 0.0 0.00 0.00 0.00 36 1012.2
20260508193803 21 289 3.2 4.8 0.00 0.00 0.00 33 1012.2
20260508193603 21 277 3.2 16.1 0.00 0.00 0.00 34 1012.2
20260508193404 20 264 3.2 12.9 0.00 0.00 0.00 33 1012.2
20260508193203 20 217 1.6 4.8 0.00 0.00 0.00 37 1012.4
20260508193101 20 229 1.6 0.0 0.00 0.00 0.00 38 1012.8
20260508193020 20 229 1.6 0.0 0.00 0.00 0.00 38 1012.9
20260508193003 20 273 1.6 29.0 0.00 0.00 0.00 38 1012.5
20260508192903 20 242 6.4 29.0 0.00 0.00 0.00 36 1012.9
20260508192605 20 216 1.6 8.0 0.00 0.00 0.00 37 1012.5
20260508192403 19 268 1.6 4.8 0.00 0.00 0.00 38 1012.5
20260508192203 19 266 1.6 6.4 0.00 0.00 0.00 35 1012.6
20260508192005 19 210 1.6 4.8 0.00 0.00 0.00 36 1012.7
20260508191903 19 201 0.0 19.3 0.00 0.00 0.00 38 1013.3
20260508191803 19 301 1.6 17.7 0.00 0.00 0.00 37 1012.8
20260508191603 20 301 1.6 17.7 0.00 0.00 0.00 34 1012.8
20260508191525 19 338 1.6 0.0 0.00 0.00 0.00 37 1013.3
20260508191403 20 292 1.6 4.8 0.00 0.00 0.00 38 1013.3
20260508191203 20 170 1.6 6.4 0.00 0.00 0.00 41 1012.8
20260508191003 19 258 1.6 16.1 0.00 0.00 0.00 39 1012.8
20260508190604 18 0 0.0 6.4 0.00 0.00 0.00 39 1012.9
20260508190404 18 0 0.0 4.8 0.00 0.00 0.00 36 1012.9
20260508190203 18 0 0.0 6.4 0.00 0.00 0.00 40 1013.0
20260508190042 18 304 0.0 0.0 0.00 0.00 0.00 37 1013.4
20260508190003 18 0 0.0 6.4 0.00 0.00 0.00 41 1012.9
20260508185903 18 310 0.0 4.8 0.00 0.00 0.00 40 1013.4
20260508185603 18 300 3.2 4.8 0.00 0.00 0.00 37 1012.9
20260508185405 18 144 3.2 1.6 0.00 0.00 0.00 38 1013.0
20260508185403 18 195 0.0 4.8 0.00 0.00 0.00 38 1013.5
20260508185203 18 329 3.2 4.8 0.00 0.00 0.00 40 1012.9
20260508185003 18 292 3.2 22.5 0.00 0.00 0.00 40 1012.9
20260508184903 18 250 9.7 22.5 0.00 0.00 0.00 34 1013.4
20260508184804 18 302 1.6 22.5 0.00 0.00 0.00 36 1012.9
20260508184604 18 312 1.6 12.9 0.00 0.00 0.00 38 1012.9
20260508184559 18 327 1.6 0.0 0.00 0.00 0.00 38 1013.5
20260508184502 18 261 1.6 0.0 0.00 0.00 0.00 40 1013.5
20260508184404 18 299 1.6 12.9 0.00 0.00 0.00 41 1013.0
20260508184203 17 301 3.2 12.9 0.00 0.00 0.00 39 1013.0
20260508184003 17 215 4.8 6.4 0.00 0.00 0.00 39 1013.2
20260508183903 18 167 0.0 14.5 0.00 0.00 0.00 37 1013.7
20260508183805 18 288 4.8 6.4 0.00 0.00 0.00 38 1013.2
20260508183603 18 301 4.8 19.3 0.00 0.00 0.00 38 1013.2
20260508183403 18 303 4.8 24.1 0.00 0.00 0.00 34 1013.2
20260508183203 19 304 3.2 16.1 0.00 0.00 0.00 36 1013.2
20260508183105 19 333 1.6 0.0 0.00 0.00 0.00 37 1013.8
20260508183011 19 300 1.6 0.0 0.00 0.00 0.00 39 1013.8
20260508183004 19 275 1.6 17.7 0.00 0.00 0.00 39 1013.3
20260508182903 19 229 3.2 19.3 0.00 0.00 0.00 39 1013.8
20260508182803 19 298 1.6 14.5 0.00 0.00 0.00 41 1013.3
20260508182603 19 282 3.2 9.7 0.00 0.00 0.00 38 1013.3
20260508182404 19 300 3.2 12.9 0.00 0.00 0.00 36 1013.3
20260508182204 19 324 3.2 14.5 0.00 0.00 0.00 42 1013.3
20260508181803 20 297 3.2 24.1 0.00 0.00 0.00 34 1013.3
20260508181604 20 268 3.2 11.3 0.00 0.00 0.00 36 1013.4
20260508181524 19 267 3.2 0.0 0.00 0.00 0.00 36 1013.8
20260508181403 20 199 4.8 8.0 0.00 0.00 0.00 43 1013.3
20260508181203 20 333 4.8 17.7 0.00 0.00 0.00 39 1013.3
20260508181004 19 326 4.8 22.5 0.00 0.00 0.00 39 1013.3
20260508180902 19 315 3.2 22.5 0.00 0.00 0.00 41 1013.8
20260508180804 19 284 4.8 22.5 0.00 0.00 0.00 41 1013.3
20260508180603 19 301 3.2 16.1 0.00 0.00 0.00 38 1013.3
20260508180403 19 289 3.2 16.1 0.00 0.00 0.00 38 1013.9
20260508180027 18 317 3.2 0.0 0.00 0.00 0.00 39 1013.9
20260508180003 19 304 3.2 6.4 0.00 0.00 0.00 39 1013.4
20260508175902 19 301 3.2 20.9 0.00 0.00 0.00 40 1014.0
20260508175803 19 290 3.2 19.3 0.00 0.00 0.00 41 1013.5
20260508175603 18 284 3.2 20.9 0.00 0.00 0.00 42 1013.5
20260508175203 18 299 1.6 14.5 0.00 0.00 0.00 41 1013.5
20260508175003 18 314 3.2 14.5 0.00 0.00 0.00 42 1013.6
20260508174903 18 72 0.0 19.3 0.00 0.00 0.00 41 1014.2
20260508174803 17 310 4.8 6.4 0.00 0.00 0.00 40 1013.7
20260508174603 17 298 6.4 19.3 0.00 0.00 0.00 39 1013.7
20260508174553 17 323 6.4 0.0 0.00 0.00 0.00 38 1014.2
20260508174403 17 307 4.8 16.1 0.00 0.00 0.00 40 1013.7
20260508174204 17 281 4.8 22.5 0.00 0.00 0.00 38 1013.7
20260508174003 17 282 4.8 27.4 0.00 0.00 0.00 37 1013.8
20260508173903 18 294 8.0 27.4 0.00 0.00 0.00 36 1014.4
20260508173803 18 265 3.2 27.4 0.00 0.00 0.00 39 1013.9
20260508173604 18 213 3.2 12.9 0.00 0.00 0.00 40 1013.8
20260508173403 17 242 4.8 9.7 0.00 0.00 0.00 42 1013.8
20260508173203 17 276 6.4 22.5 0.00 0.00 0.00 38 1013.7
20260508173032 17 223 8.0 0.0 0.00 0.00 0.00 38 1014.3
20260508173004 17 302 8.0 22.5 0.00 0.00 0.00 38 1013.8
20260508172902 17 311 4.8 19.3 0.00 0.00 0.00 40 1014.3
20260508172804 17 276 6.4 16.1 0.00 0.00 0.00 41 1013.7
20260508172203 17 294 3.2 24.1 0.00 0.00 0.00 36 1013.8
20260508172004 18 320 1.6 17.7 0.00 0.00 0.00 37 1013.8
20260508171904 18 323 1.6 16.1 0.00 0.00 0.00 39 1014.4
20260508171803 18 309 1.6 16.1 0.00 0.00 0.00 40 1013.9
20260508171604 18 300 1.6 16.1 0.00 0.00 0.00 38 1013.9
20260508171536 18 246 1.6 0.0 0.00 0.00 0.00 40 1014.4
20260508171404 18 264 3.2 9.7 0.00 0.00 0.00 40 1013.8
20260508171204 18 267 1.6 9.7 0.00 0.00 0.00 37 1013.8
20260508171004 18 268 3.2 19.3 0.00 0.00 0.00 40 1013.7
20260508170902 18 289 4.8 20.9 0.00 0.00 0.00 37 1014.2
20260508170603 19 295 1.6 17.7 0.00 0.00 0.00 36 1013.8
20260508170403 19 245 0.0 12.9 0.00 0.00 0.00 40 1014.3
20260508170203 18 296 3.2 12.9 0.00 0.00 0.00 37 1013.7
20260508170042 18 259 3.2 0.0 0.00 0.00 0.00 38 1014.3
20260508170005 18 299 3.2 0.0 0.00 0.00 0.00 38 1014.3
20260508170003 19 288 3.2 24.1 0.00 0.00 0.00 38 1013.8
20260508165903 19 253 4.8 24.1 0.00 0.00 0.00 37 1014.3
20260508165804 19 328 3.2 24.1 0.00 0.00 0.00 37 1013.9
20260508165603 19 294 4.8 11.3 0.00 0.00 0.00 40 1013.8
20260508165403 19 276 4.8 29.0 0.00 0.00 0.00 35 1013.9
20260508165004 18 262 3.2 20.9 0.00 0.00 0.00 40 1013.8
20260508164903 18 211 8.0 20.9 0.00 0.00 0.00 38 1014.3
20260508164803 18 305 3.2 20.9 0.00 0.00 0.00 39 1013.8
20260508164603 18 307 4.8 16.1 0.00 0.00 0.00 39 1013.9
20260508164548 18 304 4.8 0.0 0.00 0.00 0.00 39 1014.4
20260508164509 18 303 4.8 0.0 0.00 0.00 0.00 39 1014.4
20260508164403 18 171 1.6 12.9 0.00 0.00 0.00 44 1014.4
20260508164204 18 197 8.0 6.4 0.00 0.00 0.00 43 1013.9
20260508164004 17 298 8.0 20.9 0.00 0.00 0.00 44 1014.0
20260508163903 17 277 9.7 29.0 0.00 0.00 0.00 38 1014.4
20260508163804 17 306 8.0 29.0 0.00 0.00 0.00 40 1013.9
20260508163603 18 302 8.0 29.0 0.00 0.00 0.00 37 1014.0
20260508163403 18 295 12.9 29.0 0.00 0.00 0.00 44 1014.5
20260508163203 18 297 4.8 12.9 0.00 0.00 0.00 41 1014.0
20260508163113 17 254 4.8 0.0 0.00 0.00 0.00 47 1014.6
20260508163035 17 284 4.8 0.0 0.00 0.00 0.00 40 1014.6
20260508163004 17 300 6.4 16.1 0.00 0.00 0.00 40 1014.1
20260508162902 17 290 8.0 24.1 0.00 0.00 0.00 38 1014.6
20260508162603 17 288 4.8 20.9 0.00 0.00 0.00 44 1014.1
20260508162203 18 298 6.4 24.1 0.00 0.00 0.00 41 1014.1
20260508162003 17 271 4.8 17.7 0.00 0.00 0.00 40 1014.2
20260508161803 17 256 4.8 14.5 0.00 0.00 0.00 40 1014.2
20260508161558 17 286 4.8 0.0 0.00 0.00 0.00 40 1014.7
20260508161521 17 313 4.8 0.0 0.00 0.00 0.00 40 1014.8
20260508161403 17 269 4.8 17.7 0.00 0.00 0.00 44 1014.2
20260508161203 17 299 4.8 17.7 0.00 0.00 0.00 42 1014.2
20260508161003 17 300 4.8 17.7 0.00 0.00 0.00 40 1014.2
20260508160903 17 305 3.2 27.4 0.00 0.00 0.00 41 1014.8
20260508160804 17 282 4.8 14.5 0.00 0.00 0.00 43 1014.2
20260508160604 17 297 4.8 27.4 0.00 0.00 0.00 37 1014.3
20260508160403 17 314 3.2 19.3 0.00 0.00 0.00 46 1014.8
20260508160204 17 308 4.8 17.7 0.00 0.00 0.00 44 1014.3
20260508160027 17 53 6.4 0.0 0.00 0.00 0.00 41 1014.8
20260508160003 17 293 4.8 19.3 0.00 0.00 0.00 41 1014.2
20260508155903 17 244 4.8 24.1 0.00 0.00 0.00 42 1014.9
20260508155604 17 307 6.4 24.1 0.00 0.00 0.00 39 1014.3
20260508155203 17 240 4.8 32.2 0.00 0.00 0.00 42 1014.4
20260508155004 17 316 4.8 35.4 0.00 0.00 0.00 46 1014.4
20260508154903 17 327 11.3 35.4 0.00 0.00 0.00 43 1015.0
20260508154803 17 319 4.8 35.4 0.00 0.00 0.00 43 1014.4
20260508154604 17 291 4.8 12.9 0.00 0.00 0.00 45 1014.5
20260508154533 16 315 4.8 0.0 0.00 0.00 0.00 45 1015.0
20260508154404 17 290 6.4 24.1 0.00 0.00 0.00 41 1014.6
20260508154402 17 310 8.0 24.1 0.00 0.00 0.00 40 1015.1
20260508154203 16 268 4.8 20.9 0.00 0.00 0.00 42 1014.6
20260508154003 16 258 4.8 20.9 0.00 0.00 0.00 43 1014.6
20260508153903 16 254 3.2 16.1 0.00 0.00 0.00 44 1015.1
20260508153604 16 289 4.8 16.1 0.00 0.00 0.00 43 1014.6
20260508153403 16 293 4.8 16.1 0.00 0.00 0.00 41 1014.7
20260508153045 16 11 3.2 0.0 0.00 0.00 0.00 44 1015.3
20260508153022 16 10 3.2 0.0 0.00 0.00 0.00 44 1015.3
20260508153004 16 250 3.2 20.9 0.00 0.00 0.00 39 1014.7
20260508152903 16 279 9.7 20.9 0.00 0.00 0.00 42 1015.3
20260508152404 16 304 1.6 8.0 0.00 0.00 0.00 46 1014.7
20260508152203 16 271 3.2 17.7 0.00 0.00 0.00 45 1014.7
20260508152003 16 257 1.6 17.7 0.00 0.00 0.00 41 1014.8
20260508151903 16 260 1.6 14.5 0.00 0.00 0.00 44 1015.4
20260508151803 16 251 3.2 14.5 0.00 0.00 0.00 43 1014.8
20260508151605 16 228 3.2 14.5 0.00 0.00 0.00 46 1014.8
20260508151548 16 219 3.2 0.0 0.00 0.00 0.00 46 1015.4
20260508151521 16 215 3.2 0.0 0.00 0.00 0.00 42 1015.4
20260508151403 16 288 3.2 24.1 0.00 0.00 0.00 44 1015.4
20260508151203 16 302 1.6 24.1 0.00 0.00 0.00 43 1014.9
20260508151004 16 290 1.6 12.9 0.00 0.00 0.00 46 1014.9
20260508150903 16 261 3.2 14.5 0.00 0.00 0.00 44 1015.5
20260508150403 16 346 1.6 8.0 0.00 0.00 0.00 42 1014.9
20260508150204 16 312 1.6 12.9 0.00 0.00 0.00 42 1015.0
20260508150056 16 316 1.6 0.0 0.00 0.00 0.00 45 1015.5
20260508150026 16 301 1.6 0.0 0.00 0.00 0.00 45 1015.5
20260508150003 16 287 1.6 11.3 0.00 0.00 0.00 45 1015.0
20260508145803 16 0 0.0 6.4 0.00 0.00 0.00 47 1015.0
20260508145605 16 289 1.6 9.7 0.00 0.00 0.00 46 1015.0
20260508145404 16 285 1.6 9.7 0.00 0.00 0.00 42 1015.0
20260508145203 16 239 1.6 8.0 0.00 0.00 0.00 43 1015.0
20260508145004 16 0 0.0 8.0 0.00 0.00 0.00 47 1014.9
20260508144803 15 0 0.0 9.7 0.00 0.00 0.00 46 1014.9
20260508144603 15 0 0.0 9.7 0.00 0.00 0.00 47 1015.0
20260508144533 15 241 0.0 0.0 0.00 0.00 0.00 52 1015.5
20260508144403 15 330 1.6 9.7 0.00 0.00 0.00 48 1015.1
20260508144204 15 301 1.6 11.3 0.00 0.00 0.00 48 1015.0
20260508143903 15 276 1.6 19.3 0.00 0.00 0.00 47 1015.7
20260508143803 15 298 1.6 6.4 0.00 0.00 0.00 47 1015.1
20260508143603 15 289 1.6 17.7 0.00 0.00 0.00 46 1015.1
20260508143403 15 197 1.6 11.3 0.00 0.00 0.00 47 1015.8
20260508143034 14 290 3.2 0.0 0.00 0.00 0.00 48 1015.7
20260508143004 14 310 3.2 6.4 0.00 0.00 0.00 45 1015.1
20260508142903 14 307 1.6 19.3 0.00 0.00 0.00 46 1015.7
20260508142803 14 301 1.6 8.0 0.00 0.00 0.00 47 1015.2
20260508142603 14 304 1.6 19.3 0.00 0.00 0.00 44 1015.2
20260508142405 14 304 1.6 19.3 0.00 0.00 0.00 44 1015.2
20260508142204 14 0 0.0 11.3 0.00 0.00 0.00 45 1015.2
20260508142003 14 0 0.0 4.8 0.00 0.00 0.00 49 1015.2
20260508141903 13 47 0.0 9.7 0.00 0.00 0.00 52 1015.8
20260508141803 13 0 0.0 4.8 0.00 0.00 0.00 52 1015.2
20260508141603 13 0 0.0 9.7 0.00 0.00 0.00 50 1015.3
20260508141540 13 110 0.0 0.0 0.00 0.00 0.00 50 1015.8
20260508141504 13 329 0.0 0.0 0.00 0.00 0.00 52 1015.8
20260508141404 13 0 0.0 4.8 0.00 0.00 0.00 51 1015.3
20260508141203 13 0 0.0 6.4 0.00 0.00 0.00 49 1015.3
20260508140904 13 266 0.0 4.8 0.00 0.00 0.00 53 1015.8
20260508140203 12 0 0.0 4.8 0.00 0.00 0.00 49 1015.3
20260508140049 12 201 0.0 0.0 0.00 0.00 0.00 51 1016.0
20260508140013 12 269 0.0 0.0 0.00 0.00 0.00 55 1016.0
20260508140004 12 0 0.0 4.8 0.00 0.00 0.00 55 1015.4
20260508135903 12 140 0.0 1.6 0.00 0.00 0.00 52 1016.0
20260508135604 12 0 0.0 0.0 0.00 0.00 0.00 53 1015.4